MDT,Max TemperatureF,Mean TemperatureF,Min TemperatureF,Max Dew PointF,MeanDew PointF,Min DewpointF,Max Humidity, Mean Humidity, Min Humidity, Max Sea Level PressureIn, Mean Sea Level PressureIn, Min Sea Level PressureIn, Max VisibilityMiles, Mean VisibilityMiles, Min VisibilityMiles, Max Wind SpeedMPH, Mean Wind SpeedMPH, Max Gust SpeedMPH,PrecipitationIn, CloudCover, Events, WindDirDegrees
2013-9-1,67,55,43,48,46,42,100,72,44,30.54,30.16,29.96,10,10,7,23,4,29,0.04,5,Rain-Thunderstorm,151
2013-9-2,72,57,41,51,44,35,100,64,27,30.53,30.15,29.93,10,8,2,12,3,21,0.36,5,Rain-Thunderstorm,39
2013-9-3,73,57,40,50,44,38,100,66,31,30.57,30.16,29.99,10,8,2,16,4,22,0.27,4,Rain-Thunderstorm,63
2013-9-4,72,58,44,51,46,41,100,70,39,30.64,30.28,30.06,10,10,7,16,3,20,0.06,4,Rain-Thunderstorm,75
2013-9-5,74,58,41,47,41,35,100,64,27,30.58,30.20,30.04,10,10,10,17,4,25,0.00,3,Thunderstorm,53
2013-9-6,74,57,40,46,40,36,93,60,27,30.54,30.13,29.97,10,10,8,18,5,25,0.03,3,Rain-Thunderstorm,10
2013-9-7,72,55,38,46,41,28,100,60,20,30.47,30.07,29.92,10,9,2,18,5,23,0.20,3,Rain-Thunderstorm,35
2013-9-8,69,55,41,45,40,32,89,59,28,30.04,29.90,29.77,10,10,10,35,5,40,T,3,Rain,116
2013-9-9,65,52,39,48,44,37,96,68,40,30.33,29.93,29.75,10,9,2,20,5,29,0.09,6,Rain-Thunderstorm,350
2013-9-10,61,54,46,48,45,40,100,73,46,30.44,30.11,29.83,10,9,2,22,7,28,0.12,7,Rain,176
2013-9-11,56,51,45,52,47,45,100,86,72,30.48,30.26,29.94,10,8,0,14,5,17,0.10,7,Fog-Rain,180
2013-9-12,62,54,45,48,46,44,100,78,55,30.54,30.30,29.94,10,7,1,21,4,24,0.61,7,Rain,176
2013-9-13,56,48,40,46,44,40,100,81,61,30.40,30.04,29.81,10,8,1,14,3,17,0.61,6,Rain,125
2013-9-14,59,50,40,45,41,38,96,74,51,30.29,29.93,29.80,10,9,2,20,4,28,0.11,6,Rain,350
2013-9-15,58,46,34,44,40,34,100,76,51,30.47,30.15,29.89,10,9,0,28,5,32,0.02,6,Fog-Rain-Thunderstorm,177
2013-9-16,61,49,37,41,38,36,93,67,40,30.47,30.10,29.95,10,10,10,20,4,25,T,5,,357
2013-9-17,64,49,33,39,34,30,92,61,30,30.07,29.93,29.80,10,10,10,15,4,23,T,2,,169
2013-9-18,60,49,38,43,38,29,100,66,31,30.31,29.93,29.73,10,8,2,7,6,9,0.30,5,Rain-Thunderstorm,57
2013-9-19,57,43,29,40,33,26,100,69,38,30.30,30.04,29.86,10,9,0,17,5,23,0.00,3,Fog,350
2013-9-20,64,47,29,33,24,11,92,53,13,30.40,30.03,29.88,10,10,10,16,5,24,0.00,2,,351
2013-9-21,63,48,32,31,28,24,82,54,25,29.98,29.87,29.73,10,10,10,17,5,21,0.00,1,,17
2013-9-22,53,43,33,43,37,32,92,76,59,30.15,29.79,29.55,10,9,2,26,4,32,0.33,7,Rain-Thunderstorm,190
2013-9-23,45,37,28,34,29,25,96,75,53,30.18,29.90,29.50,10,6,1,25,11,35,0.15,6,Snow,340
2013-9-24,61,42,23,25,17,6,88,50,11,30.26,30.07,29.88,10,10,10,14,4,22,0.00,0,,60
2013-9-25,61,44,27,26,20,14,75,46,16,29.84,29.64,29.45,10,10,10,29,10,40,0.00,1,,170
2013-9-26,62,50,37,24,16,9,48,30,12,29.57,29.51,29.46,10,10,10,30,12,43,0.00,0,,163
2013-9-27,46,35,23,36,26,18,92,66,40,30.18,29.89,29.41,10,6,0,25,9,33,0.18,7,Fog-Rain-Snow,284
2013-9-28,51,35,18,24,18,10,80,55,29,30.24,30.14,29.99,10,10,10,20,10,29,0.00,2,,353
2013-9-29,56,42,28,19,15,12,69,45,20,30.12,30.00,29.89,10,10,10,22,10,29,0.00,0,,351
2013-9-30,62,50,37,28,22,15,59,41,23,29.94,29.84,29.73,10,10,10,20,9,26,0.00,0,,355